Regional Weather Roundup
Issued by NWS

Home | Current Version | Previous Version | Graphics & Text | Print | Product List | Glossary Off
Versions: 1 2 3 4 5 6 7 8 9 10 11 12 13 14 15 16 17 18 19 20 21 22 23 24 25 26 27 28 29 30 31 32 33 34 35 36 37 38 39 40 41 42 43 44 45 46 47 48 49 50

000
ASUS43 KDMX 281708
RWRIA

WEATHER ROUNDUP FOR IOWA
NATIONAL WEATHER SERVICE DES MOINES IA
1200 PM CDT THU APR 28 2016

NOTE: "FAIR" INDICATES FEW OR NO CLOUDS BELOW 12,000 FEET WITH NO
SIGNIFICANT WEATHER AND/OR OBSTRUCTIONS TO VISIBILITY.

* - THESE STATIONS ARE NOT NWS STATIONS...THUS NOT UNDER NWS
QUALITY CONTROL.  THEY ALSO DO NOT REPORT WEATHER SUCH
AS PRECIPITATION OR FOG.

IAZ001>003-012>014-020>022-031>034-043>046-281800-
   NORTHWEST IOWA

CITY           SKY/WX    TMP DP  RH WIND       PRES   REMARKS
CARROLL *      PTSUNNY   50  48  93 NW18      29.85R
CHEROKEE *     CLOUDY    41  41 100 N10       29.91R FOG
DENISON *      CLOUDY    45  43  93 N12       29.88R
LE MARS *      CLOUDY    43  39  87 N8        29.95R
ORANGE CITY *  CLOUDY    41  37  87 N9        29.94R
SHELDON *      CLOUDY    41  37  87 NE9G15    29.93R
SIOUX CITY     CLOUDY    46  41  82 N12       29.94R
SPENCER        LGT RAIN  42  38  85 NE13      29.92R
STORM LAKE *   PTSUNNY   41  41 100 N13       29.90R FOG
$$

IAZ055>058-069>071-079>083-090>094-281800-
   SOUTHWEST IOWA

CITY           SKY/WX    TMP DP  RH WIND       PRES   REMARKS
ATLANTIC *     CLOUDY    50  45  81 NW16      29.88R
AUDUBON *      PTSUNNY   48  46  93 NW12G18   29.88R
CLARINDA *       N/A    N/A N/A N/A MISG        N/A
COUNCIL BLFS *   N/A     46  45  93 NW10G18   29.92R
CRESTON *      CLOUDY    50  46  87 W15       29.89R
HARLAN  *      CLOUDY    48  45  87 NW17G23   29.91S
LAMONI         CLOUDY    54  46  74 W14       29.87R
RED OAK *      CLOUDY    48  45  87 W14       29.91R
SHENANDOAH *   CLOUDY    50  46  87 NW13      29.93R
$$

IAZ047>049-059>061-072>074-084-281800-
   CENTRAL IOWA

CITY           SKY/WX    TMP DP  RH WIND       PRES   REMARKS
AMES           CLOUDY    50  46  86 W3        29.85R
ANKENY *       CLOUDY    52  46  82 NW5       29.85R
BOONE *        CLOUDY    50  48  93 NE5       29.84R
CHARITON *     PTSUNNY   55  46  71 W9G15     29.85S
DES MOINES     CLOUDY    54  44  69 W8        29.85R
GRINNELL*      CLOUDY    52  46  82 CALM      29.85R
KNOXVILLE *    CLOUDY    52  45  76 W10       29.84R
MARSHALLTOWN   CLOUDY    50  47  89 E10       29.84R
NEWTON *       CLOUDY    52  48  87 W6        29.85R
PELLA *        PTSUNNY   54  46  76 W7        29.87R
$$

IAZ004>006-015-016-023>025-035-036-281800-
   NORTH CENTRAL IOWA

CITY           SKY/WX    TMP DP  RH WIND       PRES   REMARKS
ALGONA *       PTSUNNY   43  41  93 NE8       29.90R
CLARION *      CLOUDY    46  46 100 E8        29.87R
ESTHERVILLE    LGT RAIN  40  38  93 NE14      29.91R WCI  32
FORT DODGE *   CLOUDY    46  43  87 E3        29.87R
MASON CITY     LGT RAIN  43  41  93 E9        29.90R FOG
FOREST CITY *  CLOUDY    41  39  93 NE7       29.89R
WEBSTER CITY * CLOUDY    48  46  93 E5        29.85R
IOWA FALLS *   DRIZZLE   48  46  93 E5        29.87R
$$

IAZ007>011-017>019-026>030-037>042-050>054-066-281800-
   NORTHEAST IOWA

CITY           SKY/WX    TMP DP  RH WIND       PRES   REMARKS
CEDAR RAPIDS   LGT RAIN  49  49 100 E8        29.83R FOG
CHARLES CITY * CLOUDY    45  45 100 E13       29.89R
CLINTON *      CLOUDY    52  48  86 E14       29.87R
DECORAH *      CLOUDY    43  41  93 E12       29.89R
DUBUQUE        CLOUDY    46  43  89 E12       29.87R
MONTICELLO *   CLOUDY    48  46  93 E10       29.85S
OELWEIN *      CLOUDY    46  46 100 E12       29.86S
WATERLOO       CLOUDY    48  45  89 E12       29.85R
$$

IAZ064-065-067-068-078-281800-
   EAST CENTRAL IOWA

CITY           SKY/WX    TMP DP  RH WIND       PRES   REMARKS
DAVENPORT      CLOUDY    50  46  86 E13       29.87R
IOWA CITY      LGT RAIN  52  50  93 W5        29.85R FOG
MT. PLEASANT * CLOUDY    55  48  76 SW13      29.86R
MUSCATINE *    CLOUDY    57  50  77 S9        29.84S
QUAD CITIES    CLOUDY    52  48  86 E10       29.85S FOG
$$

IAZ062-063-075>077-085>089-095>099-281800-
   SOUTHEAST IOWA

CITY           SKY/WX    TMP DP  RH WIND       PRES   REMARKS
BURLINGTON     CLOUDY    55  47  74 W13       29.85R
FAIRFIELD *    CLOUDY    52  46  82 SW10      29.86R HAZE
FORT MADISON * CLOUDY    54  46  76 W7        29.87S
KEOKUK *       CLOUDY    55  46  71 W10       29.86S
OSKALOOSA *    CLOUDY    52  46  82 W9        29.86R FOG
OTTUMWA        LGT RAIN  50  47  89 W8        29.86R FOG
WASHINGTON *   CLOUDY    54  48  82 SW10      29.86R
$$

ABBREVIATIONS USED IN REMARKS
   TC - TEMPERATURES IN CELSIUS
  WCI - WIND CHILL INDEX
   HX - HEAT INDEX
  VSB - VISIBILITY
$$





USA.gov is the U.S. government's official web portal to all federal, state and local government web resources and services.